TimePDT,TemperatureF,Dew PointF,Humidity,Sea Level PressureIn,VisibilityMPH,Wind Direction,Wind SpeedMPH,Gust SpeedMPH,PrecipitationIn,Events,Conditions,WindDirDegrees,DateUTC
12:53 AM,57.0,26.1,30,30.02,10.0,WNW,3.5,-,N/A,,Clear,300,2012-11-03 07:53:00
1:53 AM,57.0,27.0,32,30.03,10.0,WNW,3.5,-,N/A,,Clear,300,2012-11-03 08:53:00
2:53 AM,54.0,28.0,37,30.05,10.0,WNW,3.5,-,N/A,,Clear,290,2012-11-03 09:53:00
3:53 AM,55.0,28.0,35,30.04,10.0,Calm,Calm,-,N/A,,Clear,0,2012-11-03 10:53:00
4:53 AM,55.0,26.1,33,30.06,10.0,WNW,4.6,-,N/A,,Clear,290,2012-11-03 11:53:00
5:53 AM,53.1,27.0,37,30.08,10.0,Calm,Calm,-,N/A,,Clear,0,2012-11-03 12:53:00
6:53 AM,51.1,28.0,41,30.10,10.0,NW,4.6,-,N/A,,Clear,320,2012-11-03 13:53:00
7:53 AM,53.1,28.9,40,30.13,10.0,NNW,4.6,-,N/A,,Clear,330,2012-11-03 14:53:00
8:53 AM,60.1,26.1,27,30.14,10.0,North,5.8,-,N/A,,Clear,10,2012-11-03 15:53:00
9:53 AM,64.0,27.0,25,30.15,10.0,Calm,Calm,-,N/A,,Clear,0,2012-11-03 16:53:00
10:53 AM,68.0,25.0,20,30.15,10.0,Calm,Calm,-,N/A,,Clear,0,2012-11-03 17:53:00
11:53 AM,72.0,25.0,17,30.14,10.0,Calm,Calm,-,N/A,,Clear,0,2012-11-03 18:53:00
12:53 PM,73.0,21.9,15,30.12,10.0,Calm,Calm,-,N/A,,Clear,0,2012-11-03 19:53:00
1:53 PM,75.9,21.0,13,30.10,10.0,Calm,Calm,-,N/A,,Clear,0,2012-11-03 20:53:00
2:53 PM,75.9,19.9,12,30.09,10.0,Calm,Calm,-,N/A,,Clear,0,2012-11-03 21:53:00
3:53 PM,75.9,19.9,12,30.08,10.0,Calm,Calm,-,N/A,,Clear,0,2012-11-03 22:53:00
4:53 PM,77.0,19.9,12,30.08,10.0,Calm,Calm,-,N/A,,Clear,0,2012-11-03 23:53:00
5:53 PM,73.9,19.9,13,30.09,10.0,Calm,Calm,-,N/A,,Clear,0,2012-11-04 00:53:00
6:53 PM,68.0,28.0,22,30.11,10.0,WNW,6.9,-,N/A,,Clear,300,2012-11-04 01:53:00
7:53 PM,64.0,30.9,29,30.12,10.0,NW,8.1,-,N/A,,Clear,320,2012-11-04 02:53:00
8:53 PM,62.1,28.9,29,30.13,10.0,NW,9.2,-,N/A,,Clear,310,2012-11-04 03:53:00
9:53 PM,68.0,21.2,17,30.11,10.0,North,9.2,-,N/A,,Clear,350,2012-11-04 04:53:00
10:53 PM,68.0,19.9,16,30.13,10.0,NNW,13.8,-,N/A,,Clear,340,2012-11-04 05:53:00
11:53 PM,66.9,21.0,17,30.14,10.0,North,9.2,-,N/A,,Clear,350,2012-11-04 06:53:00